Theta_e
352 353 357 359 363 360 367 364 358 357 356 354 351 353 357 357 360 362 352 351 350 351 351 351 349 352 349 348 347 347 346 345 344 344 344 348 351 348 351 351 352 352 353 353 353 352 350 343 341
350 352 358 357 363 364 366 360 361 357 356 353 352 352 354 360 355 355 353 352 350 351 352 351 350 347 348 350 346 348 347 346 346 345 344 339 343 350 348 350 352 352 350 349 351 349 350 348 343
351 353 356 357 360 365 363 359 359 356 354 354 354 352 354 358 354 353 353 351 352 351 352 353 350 348 348 351 351 346 348 344 344 345 350 344 339 351 351 351 351 351 344 344 343 347 349 347 343
353 355 354 358 363 361 359 358 355 355 354 353 353 355 354 352 353 353 352 352 352 351 352 352 351 351 350 353 353 348 345 344 344 344 348 338 342 347 350 350 351 349 344 340 343 347 346 344 345
351 351 354 357 359 358 355 355 354 356 355 355 353 356 355 353 353 353 352 352 352 350 352 354 352 352 353 353 350 353 353 352 351 350 350 341 340 339 343 345 347 349 349 341 343 345 346 343 345
351 351 353 356 357 356 354 353 353 354 355 356 355 354 357 354 354 352 351 351 350 350 352 353 352 352 353 354 354 353 353 352 350 348 348 344 341 340 340 340 347 347 349 343 342 343 345 345 341
349 351 354 354 356 356 357 353 354 353 355 356 353 355 355 354 353 351 350 350 350 351 353 353 354 354 351 354 354 353 353 350 348 348 349 344 340 342 342 342 347 348 348 345 345 347 345 349 345
347 351 350 352 356 357 356 355 353 353 356 352 350 356 358 353 353 352 351 351 351 352 354 353 352 353 354 352 354 353 350 344 347 348 344 340 339 346 349 345 342 348 344 349 351 349 346 345 345
346 351 353 352 355 355 354 356 354 353 354 353 349 352 351 353 352 352 352 352 352 353 354 353 354 353 352 352 353 351 352 348 350 349 349 343 343 344 348 347 344 350 350 349 349 350 345 349 346
347 351 351 349 352 353 353 354 355 356 355 356 354 351 351 353 352 351 352 352 352 352 353 352 352 353 353 349 354 352 351 349 350 350 350 347 346 347 346 347 344 351 351 350 350 350 350 345 347
346 350 349 351 352 353 353 354 353 355 358 355 356 355 352 353 352 351 350 349 350 351 350 350 351 351 349 347 352 351 350 350 351 351 349 348 347 346 344 347 346 348 345 346 345 346 347 346 347
343 344 348 349 352 351 354 352 354 353 354 351 350 350 352 353 351 349 349 349 349 349 349 349 350 350 350 349 350 350 350 349 349 349 348 347 345 347 350 349 349 349 348 349 348 346 346 347 348
339 339 343 345 348 349 350 354 355 354 352 350 350 349 351 350 349 348 348 348 350 350 351 351 352 351 351 352 349 349 349 348 348 350 349 346 344 349 350 350 350 349 348 349 349 350 350 350 348
338 339 340 341 343 347 351 352 355 352 351 351 351 350 350 349 349 349 349 350 350 351 352 352 352 352 352 351 350 348 349 349 349 348 347 348 347 348 350 350 349 350 350 350 348 351 351 350 350
333 339 336 337 341 344 349 355 356 351 351 353 352 351 350 349 348 349 350 350 351 350 349 351 352 352 352 351 349 349 349 349 348 348 348 342 347 349 351 349 346 347 349 351 351 353 350 350 350
334 340 336 333 338 343 347 345 346 351 353 354 353 352 352 350 349 349 349 349 350 350 350 351 350 351 351 350 347 346 350 350 348 348 348 348 342 347 350 349 347 349 351 350 351 352 348 347 347
337 336 334 334 333 339 347 346 344 350 353 354 354 352 352 352 350 349 349 349 349 350 351 351 351 350 351 351 347 347 351 349 348 348 349 347 342 348 347 349 349 352 350 351 351 350 347 345 346
336 335 333 334 333 333 335 338 337 344 351 353 354 353 353 351 351 349 349 348 348 348 350 352 351 351 352 352 352 350 349 346 348 350 350 349 348 346 350 350 350 352 353 352 351 348 350 348 348
331 333 333 333 332 334 334 335 335 336 348 352 353 354 353 352 349 349 350 349 348 349 350 352 352 352 353 351 352 352 351 351 350 349 350 350 348 348 351 348 342 352 352 352 353 351 352 350 351
331 334 333 333 333 333 334 337 338 337 339 347 350 352 353 352 351 350 349 350 349 350 351 352 353 354 354 351 351 351 350 351 352 350 350 349 349 349 351 350 348 344 349 351 354 354 350 351 350
332 334 332 333 332 332 338 333 333 335 345 346 348 349 350 352 352 350 350 350 349 350 352 353 354 355 353 351 351 351 351 351 351 350 350 349 349 349 351 349 347 348 353 350 351 354 352 350 351
333 332 330 332 333 334 332 335 334 335 336 337 341 343 348 350 351 350 349 350 350 350 352 353 355 355 354 353 350 350 349 351 349 349 349 348 348 349 350 348 340 349 350 352 353 355 352 351 348
332 330 331 332 333 333 332 335 332 333 334 335 340 341 346 348 350 349 349 349 349 350 352 353 355 355 353 353 349 350 351 350 349 348 349 348 349 350 347 349 344 348 347 353 357 355 351 348 347
330 330 331 332 333 334 333 331 331 333 331 336 341 343 347 348 349 348 346 347 349 351 352 352 355 354 353 352 350 350 351 350 349 349 349 347 348 349 349 349 347 348 344 353 351 355 351 351 350
330 331 333 335 336 334 332 332 332 330 331 333 344 344 349 350 349 349 349 349 351 351 351 352 354 355 353 352 350 350 351 350 349 350 347 344 347 348 351 351 350 344 354 356 350 352 354 355 354
331 331 333 336 335 334 332 332 331 330 331 335 339 344 349 351 350 350 349 350 352 351 351 351 353 354 353 352 350 351 350 350 349 348 346 345 347 349 351 352 348 349 352 353 352 349 353 355 354
332 332 331 332 332 333 332 331 331 330 333 333 337 341 349 351 351 351 349 349 351 350 350 351 353 352 353 352 350 350 350 350 348 347 348 345 348 349 353 352 352 353 353 354 354 351 353 354 353
331 331 332 331 334 336 333 333 332 331 334 334 336 341 341 349 351 351 350 349 349 350 349 350 350 352 352 351 350 350 350 350 349 350 349 345 347 349 348 351 352 353 351 352 355 352 353 355 353
332 332 331 331 332 334 334 333 332 331 335 336 337 340 342 345 348 351 350 348 349 349 349 350 351 352 353 351 349 348 349 349 349 349 349 349 351 350 349 350 350 352 353 354 355 353 352 353 353
333 334 333 334 335 335 334 333 331 333 334 337 338 342 341 345 346 348 350 349 349 350 350 350 352 352 352 351 349 348 348 347 348 348 348 349 351 352 352 352 353 354 354 354 355 353 349 352 350
Wind_Speed
3 2 3 5 4 2 5 4 1 6 5 2 1 4 9 5 9 4 18 14 24 23 21 20 20 17 18 17 18 16 16 18 17 16 16 13 13 14 13 13 11 10 9 9 9 9 7 7 6
3 2 5 2 3 4 5 4 6 5 6 4 5 2 1 7 9 11 18 18 25 23 21 20 21 19 17 17 18 17 16 17 16 18 17 18 13 12 12 10 9 9 7 6 6 5 4 3 4
3 3 4 2 1 4 5 4 6 7 5 3 4 2 3 4 5 16 17 25 23 21 20 20 21 18 16 15 15 16 15 15 16 16 18 20 15 12 11 9 8 8 7 5 4 4 3 2 1
3 5 4 4 9 6 8 6 10 5 5 2 1 5 7 6 9 11 22 24 22 20 19 20 20 18 16 15 15 14 15 14 15 16 17 17 14 12 9 7 6 5 5 5 4 4 4 3 2
4 3 4 8 8 5 4 5 6 3 3 5 2 5 5 8 10 19 24 22 23 21 19 18 19 17 16 15 15 15 15 15 14 14 15 16 14 14 10 8 5 6 5 5 6 6 4 3 3
2 3 3 7 7 2 3 4 2 2 4 6 2 5 7 11 15 20 22 21 20 19 18 17 16 16 16 15 14 14 14 14 13 13 13 13 13 11 11 9 5 6 6 6 7 6 4 4 5
4 3 6 4 5 3 1 3 4 2 3 5 3 4 7 12 16 20 20 19 18 17 17 17 16 15 15 13 13 12 12 12 12 12 13 12 6 9 8 8 6 7 7 7 8 6 6 5 4
2 3 4 5 6 5 2 2 1 2 4 5 2 4 9 16 19 20 19 18 17 16 16 15 15 15 13 11 12 12 11 11 10 11 10 8 9 8 6 6 7 7 7 8 7 7 6 5 4
1 2 7 7 7 5 2 4 2 1 4 4 1 3 5 21 21 21 20 17 16 15 15 15 14 14 13 12 11 11 10 9 10 10 9 8 10 6 6 7 7 7 7 7 7 7 6 6 6
4 5 8 6 4 5 2 3 3 6 5 5 7 5 13 21 22 21 21 20 19 17 16 15 15 13 13 11 11 11 10 8 8 10 11 10 9 7 6 6 8 6 7 7 7 7 7 7 10
4 7 7 4 6 4 2 2 3 6 5 6 7 11 15 19 20 20 20 20 20 18 17 16 14 13 12 11 10 10 10 9 8 10 11 9 9 7 7 6 6 7 6 8 6 7 8 8 6
3 5 5 5 3 3 3 3 4 6 4 6 2 13 16 16 16 18 19 18 17 18 17 16 16 15 14 12 11 10 10 10 9 10 10 10 8 7 6 5 6 6 7 7 8 7 6 7 8
10 9 4 4 5 6 4 6 6 7 5 4 7 13 15 14 15 16 17 17 17 17 16 16 16 16 15 14 12 11 10 10 9 10 10 10 9 7 6 5 6 6 7 9 8 6 7 8 7
9 9 5 4 5 6 6 4 3 3 8 8 11 14 14 14 16 16 16 15 17 15 17 16 17 16 15 14 14 13 12 10 10 10 9 10 8 7 6 4 7 8 7 5 6 6 6 7 7
8 6 4 8 6 4 6 9 7 4 9 11 13 14 13 14 18 18 18 17 17 16 15 16 16 16 16 17 17 14 13 12 11 11 11 13 9 7 5 5 8 8 7 5 6 5 5 7 7
6 3 5 10 7 3 6 2 3 6 10 12 13 14 15 16 18 19 18 18 17 17 15 15 15 16 17 16 17 15 14 13 12 11 11 11 11 7 5 4 5 6 7 6 7 6 6 7 8
4 5 7 6 6 8 3 12 3 4 11 12 14 15 16 16 17 19 19 18 18 17 16 16 15 15 16 13 14 17 15 15 13 13 10 10 12 9 6 6 6 5 7 7 7 6 6 8 9
6 10 10 9 8 11 11 15 11 9 12 14 14 15 17 18 20 22 21 19 17 17 17 16 15 14 14 12 12 14 14 15 14 12 12 11 10 8 6 6 4 5 7 7 7 6 6 8 9
9 11 12 11 5 13 11 12 14 8 13 14 15 16 17 19 18 22 23 19 17 17 18 17 16 15 14 14 12 12 14 13 15 15 12 10 9 8 6 5 4 5 6 5 6 6 7 8 8
9 11 11 10 6 11 12 15 15 11 11 14 16 17 18 18 18 21 22 22 22 19 19 19 18 16 16 13 11 11 14 14 13 14 12 10 10 9 7 6 3 5 4 5 8 7 8 5 8
12 12 9 13 15 16 9 15 2 5 4 9 14 16 18 19 19 19 21 23 23 22 21 20 20 18 17 13 11 11 10 10 13 14 13 12 11 10 9 7 5 6 5 4 7 8 7 6 7
13 0 6 13 15 12 9 11 13 2 7 8 10 12 15 18 19 19 20 21 22 23 21 21 21 20 17 16 12 13 14 13 15 14 13 12 12 10 9 7 5 5 6 5 4 6 6 5 6
12 2 10 12 15 14 17 7 7 1 6 12 7 3 10 16 19 19 19 23 24 23 23 21 20 18 16 15 12 14 13 13 14 14 14 13 12 10 10 8 5 4 3 3 2 5 5 2 3
7 12 13 14 11 12 3 5 7 3 11 12 7 1 7 14 17 18 22 21 21 22 21 21 20 19 17 15 14 15 14 13 13 16 17 16 13 12 10 9 8 7 5 4 4 5 6 3 3
10 14 10 7 9 7 5 8 6 8 7 10 9 3 7 12 17 17 18 20 22 23 22 21 22 21 19 16 15 16 14 14 14 15 17 15 15 14 13 11 9 9 6 5 4 5 6 4 2
10 9 7 8 8 8 3 6 5 9 5 8 5 2 6 10 14 17 17 22 25 26 25 23 22 21 20 18 16 16 15 16 15 15 17 16 15 14 12 12 12 11 8 6 5 5 5 4 3
8 11 8 11 11 9 11 4 11 4 7 9 8 2 5 11 14 16 17 23 24 25 26 26 23 23 21 19 17 17 16 15 14 15 13 15 12 12 11 13 13 11 9 10 8 7 7 5 4
11 9 8 10 13 14 8 4 10 3 8 9 11 11 2 8 13 15 16 21 23 24 25 26 23 23 22 20 18 19 18 17 14 14 14 14 14 12 13 12 12 11 11 10 9 9 8 7 7
6 11 10 12 9 11 13 8 6 3 6 8 11 13 9 4 9 13 15 21 23 23 23 25 25 22 21 21 19 20 19 18 17 15 15 14 13 13 15 13 13 13 12 12 12 11 7 8 7
14 16 15 10 13 11 10 13 1 1 5 5 9 13 12 8 6 10 14 20 22 23 23 24 26 24 23 21 20 21 20 20 19 17 16 15 13 13 14 14 14 12 12 12 12 13 15 14 11
Wind_Direction
356 275 266 245 234 196 100 96 112 130 127 35 146 356 32 34 12 58 138 140 143 145 147 142 144 140 141 139 139 142 146 155 147 143 138 141 145 151 147 143 140 134 135 128 128 119 112 112 101
292 258 231 261 264 185 106 126 131 81 103 128 122 212 349 64 58 118 140 151 148 148 148 149 149 147 142 141 141 142 145 148 156 151 149 149 158 165 158 151 151 148 148 158 146 137 129 117 94
273 233 273 335 30 75 122 148 102 103 119 147 142 314 6 56 84 139 136 151 149 150 149 153 150 151 144 144 142 143 144 149 151 157 151 156 161 162 165 162 158 154 148 171 188 198 199 166 126
265 193 211 38 76 80 101 135 131 176 139 121 28 92 108 31 147 145 145 152 151 151 153 161 154 149 143 143 144 148 152 152 152 153 153 156 166 156 154 176 182 180 179 176 198 206 206 191 181
251 252 88 67 80 114 101 129 146 186 151 158 209 97 76 80 125 140 148 155 155 153 153 160 158 152 147 149 151 153 152 151 154 148 151 165 170 195 191 182 200 199 198 193 216 217 205 199 191
209 281 89 68 74 111 180 176 181 180 157 122 201 127 83 119 136 145 151 157 156 152 154 158 163 159 155 155 155 153 157 154 158 153 162 170 178 188 211 206 201 198 188 191 207 200 181 175 158
0 2 49 60 47 100 54 177 218 219 159 152 158 124 113 141 142 150 157 156 156 155 161 163 167 164 160 159 156 158 158 165 168 165 170 168 212 180 177 196 202 195 184 181 190 178 167 175 170
339 290 36 56 30 57 91 169 245 265 105 94 191 144 158 150 154 156 160 160 161 163 163 171 168 165 165 164 158 161 168 172 173 174 184 184 170 161 182 185 183 173 172 175 174 178 171 181 175
305 2 35 32 5 30 113 217 176 252 184 140 141 340 98 153 158 160 161 165 166 170 172 176 173 171 170 167 171 168 170 177 176 181 189 180 174 178 180 189 179 178 177 183 182 180 182 192 191
349 25 19 358 12 15 336 256 172 219 201 192 179 112 135 157 166 169 171 169 179 176 181 178 180 175 171 175 169 171 175 179 183 180 178 172 177 184 191 185 193 170 179 184 190 186 193 199 206
55 21 2 33 0 333 341 251 209 245 219 244 208 148 153 164 174 178 182 180 183 181 183 182 185 184 184 179 178 175 182 179 180 178 175 185 184 189 187 186 195 188 181 191 190 196 200 205 209
38 11 356 355 341 305 302 330 262 266 295 329 191 153 161 173 179 183 187 184 185 185 188 185 188 190 189 183 187 187 186 184 184 186 185 191 188 190 197 196 191 189 182 186 196 196 203 210 213
15 -0 344 329 298 290 289 265 284 264 214 212 152 160 168 178 177 181 184 183 185 187 189 192 192 193 192 189 192 198 198 194 189 188 190 193 195 200 212 211 199 192 190 197 193 197 207 207 207
334 326 333 7 334 287 282 282 253 143 190 190 177 175 173 178 176 176 190 187 187 194 193 194 198 199 194 195 194 199 201 194 194 195 199 194 197 205 208 210 219 205 202 191 201 206 207 200 196
315 319 53 29 15 324 314 237 233 172 180 187 189 188 180 184 180 184 190 194 194 196 197 202 202 203 199 200 198 199 203 198 196 196 201 209 199 202 227 243 243 212 211 211 197 191 196 198 201
303 237 357 19 350 61 294 7 153 173 185 191 195 191 189 192 191 191 191 196 194 204 200 206 206 204 209 204 204 202 203 200 196 192 198 200 206 203 227 232 213 196 210 211 207 190 184 186 191
199 331 359 356 35 330 289 309 77 194 203 202 195 196 198 196 199 194 196 196 194 197 196 200 202 207 211 206 204 210 205 202 198 194 194 191 197 215 221 226 200 221 214 206 204 192 190 184 184
338 317 326 335 349 328 295 281 290 206 225 221 204 201 200 202 201 196 201 197 196 192 195 197 197 205 208 203 197 207 212 214 209 198 192 194 196 203 218 223 217 221 206 189 189 180 185 178 171
296 293 308 327 3 329 321 298 296 281 215 233 227 211 207 206 199 195 198 197 200 197 194 194 193 194 197 201 199 203 208 203 205 204 195 191 202 195 218 216 222 202 207 183 185 193 190 179 178
274 280 291 307 323 315 305 305 292 280 250 232 233 229 218 208 200 194 196 195 203 198 197 195 193 191 198 207 210 211 214 211 197 197 192 191 195 191 193 190 197 221 220 198 190 188 189 194 191
248 265 296 318 316 293 295 301 331 244 256 253 240 238 223 213 203 194 193 194 198 198 197 195 192 192 196 200 205 210 207 196 189 189 188 193 195 191 193 206 239 227 225 201 197 187 200 203 197
260 12 293 302 311 311 330 307 304 54 292 241 251 238 224 208 207 195 191 194 199 200 198 198 192 191 193 194 203 203 199 183 185 184 185 188 192 195 194 183 222 207 229 234 204 185 196 190 211
261 69 281 299 295 299 286 265 312 155 333 356 348 283 214 204 197 200 197 192 201 194 198 197 192 192 193 198 200 205 202 183 181 178 179 181 186 193 183 194 210 196 206 213 168 169 175 182 210
291 278 273 259 271 271 89 307 306 50 338 350 356 1 199 193 190 194 192 193 194 191 195 192 189 190 195 196 196 199 190 182 187 181 177 179 182 188 191 202 206 214 198 188 175 180 175 154 115
231 260 267 246 216 280 94 289 317 315 28 353 351 21 179 186 185 187 185 180 185 188 190 187 191 191 193 193 198 195 193 187 188 180 181 179 183 185 187 191 185 190 191 194 196 186 179 164 136
213 264 295 284 277 308 78 264 11 8 21 9 9 86 159 187 187 188 186 183 185 188 187 186 189 190 194 192 192 194 192 191 190 190 184 189 187 184 176 184 182 189 193 194 196 207 209 171 170
180 227 283 288 245 262 271 277 257 115 69 24 36 333 181 188 190 194 187 190 193 191 189 188 185 187 192 193 186 191 193 194 193 180 191 192 196 178 181 185 189 199 205 196 200 211 211 204 217
259 338 244 219 265 264 268 268 271 340 12 5 19 23 325 200 195 190 192 195 197 200 195 191 185 186 189 188 187 190 193 197 192 187 193 195 198 205 192 195 197 201 208 214 205 208 204 214 226
187 226 226 279 292 288 282 267 78 325 4 357 17 28 5 272 207 197 194 195 198 201 200 194 192 193 189 190 187 190 190 194 194 194 198 202 203 205 204 205 204 210 216 215 218 225 226 223 232
274 280 283 252 255 236 281 284 325 47 343 27 16 18 9 334 270 209 194 193 194 199 200 199 194 194 193 191 188 192 190 193 195 199 201 203 206 207 206 205 206 213 215 215 220 230 237 225 224